Welcome to our new website - Welkom op onze vernieuwde website - Bienvenue sur notre nouveau site web - Willkommen auf unserer neuen Website
Check our progress frequently. Prüfen Sie unsere Fortschritte regelmäßig. Consultez notre progression fréquemment. Komt u straks nog eens terug

Bezoek ook deze websites:

Template documentation
and downloads

And another site



Het weer levert geen direct gevaar op.    Er zijn geen waarschuwingen afgegeven.

Select another period ( hide this area )

Eenheden Periode Custom range Directly to
Metrisch Engels Beide
Dagelijkse Wekelijkse Maandelijkse Jaarlijkse
use both date-selectors for a custom range
previous Dag
With this date

WeatherUnderground graphs for this period ( click here )


Dagelijkse Samenvatting Vrijdag 05 juni 2020
Tijd Temp. ( °C ) Dew pt. ( °C ) Wind ( km/h ) van Windvlaag ( km/h ) Luchtdruk ( hPa ) Humid.( % ) Rainrate ( cm )
Hoog12,8 11,2 14,0 Westen ( 22/64 ) 26,0 996,3 93 5,08
Gemiddeld9,8 8,3 0,2 Kalm #263/279 1,0 993,2 90 2,50
Laag6,9 5,7 -   0,0 989,2 83 -
Dagelijkse Tabular details for Vrijdag 05 juni 2020
Tijd Temp. ( °C ) Dew pt. ( °C ) Wind ( km/h ) van Windvlaag ( km/h ) Luchtdruk ( hPa ) Humid.( % ) Rainrate ( cm )
00:04 10,0 8,9   Kalm   996,3 92 1,02
00:09 10,0 8,8   Kalm   996,3 92 1,27
00:14 10,0 8,8   Kalm   996,3 92 1,27
00:19 10,1 8,9   Kalm   996,3 92 1,27
00:24 10,0 8,8   Kalm   996,3 92 1,27
00:29 10,1 8,9   Kalm   995,9 92 1,27
00:34 10,1 8,9   Kalm   995,9 92 1,02
00:39 10,1 8,9   Kalm   995,9 92 1,02
00:44 10,0 8,8   Kalm   995,9 92 1,02
00:49 9,9 8,9   Kalm   995,9 92 1,02
00:54 9,9 8,7   Kalm   995,9 92 0,76
00:59 9,9 8,7   Kalm   995,9 92 0,51
01:04 9,9 8,7   Kalm   995,9 92 0,25
01:09 9,8 8,6   Kalm   995,9 92 0,25
01:14 9,8 8,6   Kalm   995,9 92 -
01:19 9,8 8,6   Kalm   995,9 92 -
01:24 9,7 8,5   Kalm   995,9 92 -
01:29 9,7 8,5   Kalm   995,9 92 -
01:34 9,6 8,4   Kalm   996,3 92 -
01:39 9,5 8,3   Kalm   996,3 92 -
01:44 9,4 8,2   Kalm   996,3 92 -
01:49 9,4 8,3   Kalm   996,3 92 -
01:54 9,3 8,1   Kalm   995,9 92 -
01:59 9,3 8,1   Kalm   995,9 92 -
02:04 9,2 8,0   Kalm   995,9 92 -
02:09 9,1 7,9   Kalm   995,9 92 -
02:14 9,1 7,9   Kalm   995,9 92 -
02:19 9,1 7,9   Kalm   996,3 92 -
02:24 9,1 7,9   Kalm   996,3 92 -
02:29 9,1 7,9   Kalm   996,3 92 -
02:34 9,1 7,9   Kalm   995,9 92 -
02:39 9,1 7,9   Kalm   995,9 92 -
02:44 9,1 7,9   Kalm   995,9 92 -
02:49 8,9 7,8   Kalm   995,9 92 -
02:54 8,8 7,6   Kalm   995,9 92 -
02:59 8,8 7,6   Kalm   996,3 92 0,25
03:04 8,7 7,5   Kalm   995,9 92 0,51
03:09 8,7 7,5   Kalm   995,9 92 0,51
03:14 8,6 7,4   Kalm   995,9 92 0,51
03:19 8,6 7,4   Kalm   995,9 92 0,51
03:24 8,6 7,4   Kalm   995,9 92 0,51
03:29 8,6 7,4   Kalm   995,9 92 0,51
03:34 8,6 7,4   Kalm   995,9 92 0,51
03:39 8,6 7,4   Kalm   995,9 92 0,51
03:44 8,5 7,3   Kalm   995,9 92 0,51
03:49 8,4 7,2   Kalm   995,9 92 0,51
03:54 8,3 7,1   Kalm   995,9 92 0,51
03:59 8,3 7,1   Kalm   995,9 92 0,51
04:04 8,2 7,2   Kalm   995,6 92 -
04:09 8,2 7,0   Kalm   995,6 92 -
04:14 8,1 6,9   Kalm   995,9 92 -
04:19 7,9 6,7   Kalm   995,6 92 -
04:24 7,9 6,7   Kalm   995,6 92 -
04:29 7,8 6,6   Kalm   995,6 92 -
04:34 7,7 6,7   Kalm   995,6 92 -
04:39 7,7 6,5   Kalm   995,6 92 0,25
04:44 7,6 6,4   Kalm   995,6 92 0,25
04:49 7,6 6,4   Kalm   995,6 92 0,25
04:54 7,5 6,3   Kalm   995,6 92 0,25
04:59 7,4 6,2   Kalm   995,6 92 0,25
05:04 7,4 6,2   Kalm   995,6 92 0,25
05:09 7,3 6,1   Kalm   995,6 92 0,25
05:14 7,3 6,1   Kalm   995,6 92 0,25
05:19 7,3 6,1   Kalm   995,6 92 0,25
05:24 7,2 6,0   Kalm   995,6 92 0,25
05:29 7,2 6,0   Kalm   995,6 92 0,25
05:34 7,2 6,1   Kalm   995,6 92 0,25
05:39 7,1 5,9   Kalm   995,6 92 0,25
05:44 7,1 6,0   Kalm   995,6 93 -
05:49 7,1 6,1   Kalm   995,6 92 -
05:54 7,0 5,8   Kalm   995,6 92 -
05:59 6,9 5,7   Kalm   995,6 92 -
06:04 6,9 5,8   Kalm   995,6 93 -
06:09 6,9 5,8   Kalm   995,6 93 -
06:14 7,0 5,9   Kalm   995,3 93 -
06:19 7,1 6,1   Kalm   995,3 93 -
06:24 7,2 6,1   Kalm   995,3 93 -
06:29 7,3 6,2   Kalm   995,3 93 -
06:34 7,4 6,3   Kalm   995,3 93 -
06:39 7,6 6,5   Kalm   995,3 93 -
06:44 7,7 6,6   Kalm   995,3 93 -
06:49 7,7 6,7   Kalm   994,9 93 -
06:54 7,8 6,7   Kalm   995,3 93 -
06:59 7,8 6,7   Kalm   995,3 93 -
07:04 7,9 6,8   Kalm   995,3 93 -
07:09 7,9 6,8   Kalm   995,3 93 -
07:14 8,0 6,9   Kalm   995,3 93 -
07:19 8,1 7,0   Kalm   994,9 93 -
07:24 8,1 7,0   Kalm   994,9 93 -
07:29 8,2 7,1   Kalm   994,9 93 -
07:34 8,3 7,2   Kalm   994,9 93 -
07:39 8,4 7,3   Kalm   994,9 93 -
07:44 8,6 7,5   Kalm   994,9 93 -
07:49 8,7 7,8   Kalm   994,9 93 -
07:54 8,8 7,7   Kalm   994,9 93 -
07:59 8,9 7,8   Kalm   994,9 93 -
08:04 9,1 8,0   Kalm   994,9 93 -
08:09 9,2 8,1   Kalm   994,6 93 -
08:14 9,3 8,2   Kalm   994,6 93 -
08:19 9,3 8,3   Kalm   994,6 93 -
08:24 9,4 8,3   Kalm   994,2 93 -
08:29 9,5 8,4   Kalm   994,2 93 -
08:34 9,6 8,5   Kalm   994,2 93 -
08:39 9,6 8,5   Kalm   994,2 93 -
08:44 9,6 8,5   Kalm   994,2 93 -
08:49 9,7 8,6   Kalm   993,9 93 -
08:54 9,8 8,7   Kalm   993,9 93 -
08:59 9,9 8,8   Kalm   993,9 93 -
09:04 10,0 8,9   Kalm   993,9 93 -
09:09 10,0 8,9   Kalm   993,9 93 -
09:14 10,1 9,0   Kalm   993,9 93 -
09:19 10,2 9,0   Kalm   993,6 92 -
09:24 10,3 9,2   Kalm   993,9 93 -
09:29 10,4 9,2   Kalm   993,6 92 -
09:34 10,6 9,4   Kalm   993,6 92 -
09:39 10,7 9,3   Kalm   993,6 91 -
09:44 10,7 9,3   Kalm   993,6 91 -
09:49 10,7 9,1   Kalm   993,6 90 -
09:54 10,7 9,0   Kalm   993,6 89 -
09:59 10,7 9,0   Kalm   993,2 89 -
10:04 10,7 9,0   Kalm   993,2 89 -
10:09 10,7 9,0   Kalm   993,2 89 -
10:14 10,9 9,2   Kalm   992,9 89 -
10:19 11,1 9,4   Kalm   992,9 90 -
10:24 11,3 9,7   Kalm   992,9 90 -
10:29 11,6 9,8   Kalm   992,6 89 -
10:34 11,8 10,0   Kalm   992,6 89 -
10:39 12,0 10,0   Kalm   992,6 88 -
10:44 12,1 9,9   Kalm   992,2 87 -
10:49 12,1 10,0   Kalm   992,2 86 -
10:54 12,2 9,9   Kalm   992,2 86 -
10:59 12,2 9,9   Kalm   991,9 86 -
11:04 12,3 10,0   Kalm   991,9 86 -
11:09 12,3 9,9   Kalm   991,9 85 -
11:14 12,3 9,7   Kalm   991,5 84 -
11:19 12,3 9,7   Kalm   991,5 84 -
11:24 12,3 9,7   Kalm   991,5 84 -
11:29 12,4 9,8   Kalm   991,5 84 -
11:34 12,5 9,8   Kalm   991,2 84 -
11:39 12,6 10,0   Kalm   991,2 84 -
11:44 12,6 10,0   Kalm   991,2 84 -
11:49 12,5 9,7   Kalm   990,9 83 -
11:54 12,4 9,8   Kalm   990,9 84 -
11:59 12,3 9,9   Kalm   990,9 85 0,25
12:04 12,2 10,0   Kalm   990,5 85 0,25
12:09 12,1 9,8   Kalm   990,5 86 0,25
12:14 12,1 9,8   Kalm   990,5 86 0,51
12:19 11,9 9,8   Kalm   990,5 87 0,76
12:24 11,9 9,8   Kalm   990,2 87 1,02
12:29 11,8 9,8   Kalm   990,2 88 1,78
12:34 11,7 10,0   Kalm   989,8 88 2,29
12:39 11,6 9,8   Kalm   989,8 89 2,54
12:44 11,6 10,0   Kalm   989,8 90 2,54
12:49 11,6 10,0   Kalm   989,8 90 2,54
12:54 11,6 10,0   Kalm   989,8 90 2,54
12:59 11,6 10,0   Kalm   989,5 90 2,54
13:04 11,7 10,3   Kalm   989,5 91 2,54
13:09 11,7 10,3   Kalm   989,8 91 2,54
13:14 11,7 10,3   Kalm   989,8 91 2,54
13:19 11,6 10,0   Kalm   989,8 90 2,29
13:24 11,3 9,6   Kalm   989,8 89 2,03
13:29 11,2 9,5   Kalm   989,8 89 1,78
13:34 11,0 9,4   Kalm   989,8 89 1,02
13:39 10,8 9,1   Kalm   989,8 89 0,51
13:44 10,7 9,0   Kalm   989,8 89 0,25
13:49 10,6 8,9   Kalm   989,8 89 0,25
13:54 10,6 8,9   Kalm   989,8 89 0,25
13:59 10,5 8,8   Kalm   989,8 89 0,25
14:04 10,5 8,9   Kalm   989,8 90 5,08
14:09 10,6 9,0   Kalm   989,8 90 5,08
14:14 10,6 9,0   Kalm   989,8 90 5,08
14:19 10,7 9,1   Kalm   989,8 90 5,08
14:24 10,8 9,2   Kalm   989,8 90 5,08
14:29 10,9 9,3   Kalm   989,5 90 5,08
14:34 10,9 9,4   Kalm   989,5 90 5,08
14:39 11,2 9,6   Kalm   989,5 90 5,08
14:44 11,6 10,2 8,0 ZZO 8,0 989,5 91 5,08
14:49 11,7 10,2 8,0 ZZO 11,0 989,2 91 5,08
14:54 11,6 9,7 1,0 ZO 2,0 989,2 88 5,08
14:59 11,7 9,8 8,0 ZO 8,0 989,5 88 5,08
15:04 11,7 10,0   Kalm 8,0 989,5 88 5,08
15:09 11,9 10,1   Kalm   989,5 89 -
15:14 12,3 10,8   Kalm 3,0 989,5 91 -
15:19 12,6 10,8 1,0 ZW 5,0 989,5 90 -
15:24 12,8 10,7   Kalm 5,0 989,2 87 -
15:29 12,8 10,7 1,0 ZZO 2,0 989,2 87 -
15:34 12,8 10,6   Kalm 2,0 989,2 86 -
15:39 12,8 10,3   Kalm   989,2 85 0,25
15:44 12,7 10,2   Kalm   989,2 85 0,76
15:49 12,4 10,0   Kalm   989,2 86 0,76
15:54 12,5 10,7   Kalm   989,2 89 0,76
15:59 12,7 10,9   Kalm   989,2 89 0,76
16:04 12,8 11,2   Kalm   989,2 90 0,76
16:09 12,8 11,0   Kalm   989,2 89 1,78
16:14 12,7 10,8   Kalm 2,0 989,5 88 2,03
16:19 12,1 9,3   Kalm   989,5 84 2,29
16:24 11,3 8,7   Kalm   989,5 85 2,79
16:29 10,7 8,3   Kalm   989,5 86 3,05
16:34 10,3 8,3   Kalm   989,8 88 3,05
16:39 10,1 8,2   Kalm   989,8 88 3,05
16:44 9,9 8,2   Kalm   989,8 89 2,54
16:49 9,9 8,3   Kalm 5,0 989,8 90 2,29
16:54 10,0 8,6   Kalm 5,0 989,8 91 2,29
16:59 10,1 8,7   Kalm   989,8 91 2,29
17:04 10,2 8,9 2,0 WZW 3,0 989,8 91 2,29
17:09 10,2 8,8   Kalm 3,0 990,2 91 2,29
17:14 10,2 8,8   Kalm 3,0 990,2 91 1,27
17:19 10,3 8,9   Kalm 3,0 990,2 91 1,27
17:24 10,6 9,2   Kalm   990,2 91 1,02
17:29 10,7 9,3 6,0 NW 6,0 990,2 91 0,25
17:34 10,7 9,3 14,0 Westen 26,0 990,5 91 0,25
17:39 10,7 9,1 3,0 NNW 26,0 990,9 90 0,25
17:44 10,6 8,9   Kalm 3,0 990,9 89 0,25
17:49 10,6 8,9   Kalm 3,0 990,9 89 0,25
17:54 10,4 8,5   Kalm   991,2 88 0,25
17:59 10,4 8,7   Kalm   991,2 89 0,51
18:04 10,4 8,9   Kalm   991,2 89 0,51
18:09 10,4 8,8   Kalm   991,2 90 0,76
18:14 10,4 8,8   Kalm 2,0 991,5 90 0,76
18:19 10,4 8,9   Kalm   991,5 90 0,51
18:24 10,4 8,8   Kalm   991,5 90 0,51
18:29 10,4 8,8   Kalm   991,9 90 0,51
18:34 10,4 8,9   Kalm   991,9 91 0,51
18:39 10,5 9,1   Kalm   991,9 91 0,76
18:44 10,6 9,2   Kalm   991,9 91 0,76
18:49 10,6 9,4   Kalm   991,9 91 0,76
18:54 10,6 9,2   Kalm   991,9 91 0,76
18:59 10,6 9,0   Kalm   991,9 90 0,76
19:04 10,6 9,0   Kalm   992,2 90 0,51
19:09 10,5 8,9   Kalm   992,2 90 0,51
19:14 10,4 8,8   Kalm   992,2 90 0,25
19:19 10,4 8,9   Kalm 19,0 992,6 90 0,25
19:24 10,4 8,8   Kalm 23,0 992,6 90 0,25
19:29 10,2 8,3   Kalm 3,0 992,9 88 0,25
19:34 10,2 8,3   Kalm 3,0 992,9 88 0,25
19:39 10,1 8,2   Kalm 3,0 992,9 88 0,25
19:44 10,0 8,1   Kalm   992,9 88 -
19:49 10,0 8,3   Kalm   992,9 88 -
19:54 9,9 8,0   Kalm   992,9 88 -
19:59 9,9 7,8   Kalm   993,2 87 -
20:04 9,9 7,8   Kalm 2,0 993,2 87 -
20:09 9,8 7,6   Kalm 2,0 993,6 86 -
20:14 9,8 7,4   Kalm 2,0 993,6 85 -
20:19 9,7 7,3 1,0 Westen 2,0 993,6 85 -
20:24 9,7 7,3 1,0 Westen 2,0 993,6 85 -
20:29 9,6 7,4   Kalm   993,9 86 -
20:34 9,6 7,4   Kalm 2,0 994,2 86 -
20:39 9,5 7,4   Kalm 5,0 994,2 87 0,51
20:44 9,3 7,1   Kalm 5,0 994,2 87 1,02
20:49 9,2 7,2   Kalm 3,0 993,9 87 1,02
20:54 9,1 7,1   Kalm 3,0 994,2 88 1,02
20:59 8,9 7,0   Kalm 3,0 994,2 88 1,02
21:04 8,8 7,2   Kalm 3,0 994,2 89 1,02
21:09 8,8 7,1 3,0 Westen 3,0 994,2 89 1,02
21:14 8,7 7,0   Kalm 3,0 994,2 89 1,02
21:19 8,6 6,9 3,0 ZW 3,0 994,2 89 1,02
21:24 8,5 6,8   Kalm 3,0 994,2 89 1,02
21:29 8,4 6,9   Kalm 3,0 994,2 90 1,02
21:34 8,3 6,8   Kalm 3,0 994,2 90 1,02
21:39 8,3 6,8   Kalm 3,0 994,2 90 0,76
21:44 8,3 6,8   Kalm 3,0 994,6 90 0,51
21:49 8,3 6,8   Kalm 3,0 994,6 90 -
21:54 8,3 6,9   Kalm 3,0 994,6 91 -
21:59 8,3 6,9   Kalm 3,0 994,6 91 -
22:04 8,3 6,9   Kalm 3,0 994,9 91 0,25
22:09 8,4 7,0 1,0 ZO 3,0 994,9 91 0,25
22:14 8,5 7,1   Kalm 3,0 994,9 91 0,25
22:19 8,6 7,2   Kalm 2,0 995,3 91 0,25
22:24 8,6 7,2   Kalm 3,0 995,3 91 0,25
22:29 8,5 7,1   Kalm   995,3 91 0,25
22:34 8,5 7,2   Kalm 3,0 995,3 91 0,25
22:39 8,4 7,0   Kalm   995,3 91 0,25
22:44 8,4 7,0   Kalm 3,0 995,3 91 0,25
22:49 8,4 7,2   Kalm   995,3 91 0,25
22:54 8,3 6,9   Kalm 3,0 995,3 91 0,25
22:59 8,3 6,9   Kalm   995,3 91 0,25
23:04 8,2 6,8 3,0 Westen 3,0 995,3 91 0,25
23:09 8,2 6,8   Kalm   995,3 91 -
23:14 8,2 6,8   Kalm 3,0 995,3 91 -
Dagelijkse Samenvatting Vrijdag 05 juni 2020
Tijd Temp. ( °C ) Dew pt. ( °C ) Wind ( km/h ) van Windvlaag ( km/h ) Luchtdruk ( hPa ) Humid.( % ) Rainrate ( cm )
Hoog12,8 11,2 14,0 Westen ( 22/64 ) 26,0 996,3 93 5,08
Gemiddeld9,8 8,3 0,2 Kalm #263/279 1,0 993,2 90 2,50
Laag6,9 5,7 -   0,0 989,2 83 -
Dagelijkse Tabular details for Vrijdag 05 juni 2020
Tijd Temp. ( °C ) Dew pt. ( °C ) Wind ( km/h ) van Windvlaag ( km/h ) Luchtdruk ( hPa ) Humid.( % ) Rainrate ( cm )
00:04 10,0 8,9   Kalm   996,3 92 1,02
00:09 10,0 8,8   Kalm   996,3 92 1,27
00:14 10,0 8,8   Kalm   996,3 92 1,27
00:19 10,1 8,9   Kalm   996,3 92 1,27
00:24 10,0 8,8   Kalm   996,3 92 1,27
00:29 10,1 8,9   Kalm   995,9 92 1,27
00:34 10,1 8,9   Kalm   995,9 92 1,02
00:39 10,1 8,9   Kalm   995,9 92 1,02
00:44 10,0 8,8   Kalm   995,9 92 1,02
00:49 9,9 8,9   Kalm   995,9 92 1,02
00:54 9,9 8,7   Kalm   995,9 92 0,76
00:59 9,9 8,7   Kalm   995,9 92 0,51
01:04 9,9 8,7   Kalm   995,9 92 0,25
01:09 9,8 8,6   Kalm   995,9 92 0,25
01:14 9,8 8,6   Kalm   995,9 92 -
01:19 9,8 8,6   Kalm   995,9 92 -
01:24 9,7 8,5   Kalm   995,9 92 -
01:29 9,7 8,5   Kalm   995,9 92 -
01:34 9,6 8,4   Kalm   996,3 92 -
01:39 9,5 8,3   Kalm   996,3 92 -
01:44 9,4 8,2   Kalm   996,3 92 -
01:49 9,4 8,3   Kalm   996,3 92 -
01:54 9,3 8,1   Kalm   995,9 92 -
01:59 9,3 8,1   Kalm   995,9 92 -
02:04 9,2 8,0   Kalm   995,9 92 -
02:09 9,1 7,9   Kalm   995,9 92 -
02:14 9,1 7,9   Kalm   995,9 92 -
02:19 9,1 7,9   Kalm   996,3 92 -
02:24 9,1 7,9   Kalm   996,3 92 -
02:29 9,1 7,9   Kalm   996,3 92 -
02:34 9,1 7,9   Kalm   995,9 92 -
02:39 9,1 7,9   Kalm   995,9 92 -
02:44 9,1 7,9   Kalm   995,9 92 -
02:49 8,9 7,8   Kalm   995,9 92 -
02:54 8,8 7,6   Kalm   995,9 92 -
02:59 8,8 7,6   Kalm   996,3 92 0,25
03:04 8,7 7,5   Kalm   995,9 92 0,51
03:09 8,7 7,5   Kalm   995,9 92 0,51
03:14 8,6 7,4   Kalm   995,9 92 0,51
03:19 8,6 7,4   Kalm   995,9 92 0,51
03:24 8,6 7,4   Kalm   995,9 92 0,51
03:29 8,6 7,4   Kalm   995,9 92 0,51
03:34 8,6 7,4   Kalm   995,9 92 0,51
03:39 8,6 7,4   Kalm   995,9 92 0,51
03:44 8,5 7,3   Kalm   995,9 92 0,51
03:49 8,4 7,2   Kalm   995,9 92 0,51
03:54 8,3 7,1   Kalm   995,9 92 0,51
03:59 8,3 7,1   Kalm   995,9 92 0,51
04:04 8,2 7,2   Kalm   995,6 92 -
04:09 8,2 7,0   Kalm   995,6 92 -
04:14 8,1 6,9   Kalm   995,9 92 -
04:19 7,9 6,7   Kalm   995,6 92 -
04:24 7,9 6,7   Kalm   995,6 92 -
04:29 7,8 6,6   Kalm   995,6 92 -
04:34 7,7 6,7   Kalm   995,6 92 -
04:39 7,7 6,5   Kalm   995,6 92 0,25
04:44 7,6 6,4   Kalm   995,6 92 0,25
04:49 7,6 6,4   Kalm   995,6 92 0,25
04:54 7,5 6,3   Kalm   995,6 92 0,25
04:59 7,4 6,2   Kalm   995,6 92 0,25
05:04 7,4 6,2   Kalm   995,6 92 0,25
05:09 7,3 6,1   Kalm   995,6 92 0,25
05:14 7,3 6,1   Kalm   995,6 92 0,25
05:19 7,3 6,1   Kalm   995,6 92 0,25
05:24 7,2 6,0   Kalm   995,6 92 0,25
05:29 7,2 6,0   Kalm   995,6 92 0,25
05:34 7,2 6,1   Kalm   995,6 92 0,25
05:39 7,1 5,9   Kalm   995,6 92 0,25
05:44 7,1 6,0   Kalm   995,6 93 -
05:49 7,1 6,1   Kalm   995,6 92 -
05:54 7,0 5,8   Kalm   995,6 92 -
05:59 6,9 5,7   Kalm   995,6 92 -
06:04 6,9 5,8   Kalm   995,6 93 -
06:09 6,9 5,8   Kalm   995,6 93 -
06:14 7,0 5,9   Kalm   995,3 93 -
06:19 7,1 6,1   Kalm   995,3 93 -
06:24 7,2 6,1   Kalm   995,3 93 -
06:29 7,3 6,2   Kalm   995,3 93 -
06:34 7,4 6,3   Kalm   995,3 93 -
06:39 7,6 6,5   Kalm   995,3 93 -
06:44 7,7 6,6   Kalm   995,3 93 -
06:49 7,7 6,7   Kalm   994,9 93 -
06:54 7,8 6,7   Kalm   995,3 93 -
06:59 7,8 6,7   Kalm   995,3 93 -
07:04 7,9 6,8   Kalm   995,3 93 -
07:09 7,9 6,8   Kalm   995,3 93 -
07:14 8,0 6,9   Kalm   995,3 93 -
07:19 8,1 7,0   Kalm   994,9 93 -
07:24 8,1 7,0   Kalm   994,9 93 -
07:29 8,2 7,1   Kalm   994,9 93 -
07:34 8,3 7,2   Kalm   994,9 93 -
07:39 8,4 7,3   Kalm   994,9 93 -
07:44 8,6 7,5   Kalm   994,9 93 -
07:49 8,7 7,8   Kalm   994,9 93 -
07:54 8,8 7,7   Kalm   994,9 93 -
07:59 8,9 7,8   Kalm   994,9 93 -
08:04 9,1 8,0   Kalm   994,9 93 -
08:09 9,2 8,1   Kalm   994,6 93 -
08:14 9,3 8,2   Kalm   994,6 93 -
08:19 9,3 8,3   Kalm   994,6 93 -
08:24 9,4 8,3   Kalm   994,2 93 -
08:29 9,5 8,4   Kalm   994,2 93 -
08:34 9,6 8,5   Kalm   994,2 93 -
08:39 9,6 8,5   Kalm   994,2 93 -
08:44 9,6 8,5   Kalm   994,2 93 -
08:49 9,7 8,6   Kalm   993,9 93 -
08:54 9,8 8,7   Kalm   993,9 93 -
08:59 9,9 8,8   Kalm   993,9 93 -
09:04 10,0 8,9   Kalm   993,9 93 -
09:09 10,0 8,9   Kalm   993,9 93 -
09:14 10,1 9,0   Kalm   993,9 93 -
09:19 10,2 9,0   Kalm   993,6 92 -
09:24 10,3 9,2   Kalm   993,9 93 -
09:29 10,4 9,2   Kalm   993,6 92 -
09:34 10,6 9,4   Kalm   993,6 92 -
09:39 10,7 9,3   Kalm   993,6 91 -
09:44 10,7 9,3   Kalm   993,6 91 -
09:49 10,7 9,1   Kalm   993,6 90 -
09:54 10,7 9,0   Kalm   993,6 89 -
09:59 10,7 9,0   Kalm   993,2 89 -
10:04 10,7 9,0   Kalm   993,2 89 -
10:09 10,7 9,0   Kalm   993,2 89 -
10:14 10,9 9,2   Kalm   992,9 89 -
10:19 11,1 9,4   Kalm   992,9 90 -
10:24 11,3 9,7   Kalm   992,9 90 -
10:29 11,6 9,8   Kalm   992,6 89 -
10:34 11,8 10,0   Kalm   992,6 89 -
10:39 12,0 10,0   Kalm   992,6 88 -
10:44 12,1 9,9   Kalm   992,2 87 -
10:49 12,1 10,0   Kalm   992,2 86 -
10:54 12,2 9,9   Kalm   992,2 86 -
10:59 12,2 9,9   Kalm   991,9 86 -
11:04 12,3 10,0   Kalm   991,9 86 -
11:09 12,3 9,9   Kalm   991,9 85 -
11:14 12,3 9,7   Kalm   991,5 84 -
11:19 12,3 9,7   Kalm   991,5 84 -
11:24 12,3 9,7   Kalm   991,5 84 -
11:29 12,4 9,8   Kalm   991,5 84 -
11:34 12,5 9,8   Kalm   991,2 84 -
11:39 12,6 10,0   Kalm   991,2 84 -
11:44 12,6 10,0   Kalm   991,2 84 -
11:49 12,5 9,7   Kalm   990,9 83 -
11:54 12,4 9,8   Kalm   990,9 84 -
11:59 12,3 9,9   Kalm   990,9 85 0,25
12:04 12,2 10,0   Kalm   990,5 85 0,25
12:09 12,1 9,8   Kalm   990,5 86 0,25
12:14 12,1 9,8   Kalm   990,5 86 0,51
12:19 11,9 9,8   Kalm   990,5 87 0,76
12:24 11,9 9,8   Kalm   990,2 87 1,02
12:29 11,8 9,8   Kalm   990,2 88 1,78
12:34 11,7 10,0   Kalm   989,8 88 2,29
12:39 11,6 9,8   Kalm   989,8 89 2,54
12:44 11,6 10,0   Kalm   989,8 90 2,54
12:49 11,6 10,0   Kalm   989,8 90 2,54
12:54 11,6 10,0   Kalm   989,8 90 2,54
12:59 11,6 10,0   Kalm   989,5 90 2,54
13:04 11,7 10,3   Kalm   989,5 91 2,54
13:09 11,7 10,3   Kalm   989,8 91 2,54
13:14 11,7 10,3   Kalm   989,8 91 2,54
13:19 11,6 10,0   Kalm   989,8 90 2,29
13:24 11,3 9,6   Kalm   989,8 89 2,03
13:29 11,2 9,5   Kalm   989,8 89 1,78
13:34 11,0 9,4   Kalm   989,8 89 1,02
13:39 10,8 9,1   Kalm   989,8 89 0,51
13:44 10,7 9,0   Kalm   989,8 89 0,25
13:49 10,6 8,9   Kalm   989,8 89 0,25
13:54 10,6 8,9   Kalm   989,8 89 0,25
13:59 10,5 8,8   Kalm   989,8 89 0,25
14:04 10,5 8,9   Kalm   989,8 90 5,08
14:09 10,6 9,0   Kalm   989,8 90 5,08
14:14 10,6 9,0   Kalm   989,8 90 5,08
14:19 10,7 9,1   Kalm   989,8 90 5,08
14:24 10,8 9,2   Kalm   989,8 90 5,08
14:29 10,9 9,3   Kalm   989,5 90 5,08
14:34 10,9 9,4   Kalm   989,5 90 5,08
14:39 11,2 9,6   Kalm   989,5 90 5,08
14:44 11,6 10,2 8,0 ZZO 8,0 989,5 91 5,08
14:49 11,7 10,2 8,0 ZZO 11,0 989,2 91 5,08
14:54 11,6 9,7 1,0 ZO 2,0 989,2 88 5,08
14:59 11,7 9,8 8,0 ZO 8,0 989,5 88 5,08
15:04 11,7 10,0   Kalm 8,0 989,5 88 5,08
15:09 11,9 10,1   Kalm   989,5 89 -
15:14 12,3 10,8   Kalm 3,0 989,5 91 -
15:19 12,6 10,8 1,0 ZW 5,0 989,5 90 -
15:24 12,8 10,7   Kalm 5,0 989,2 87 -
15:29 12,8 10,7 1,0 ZZO 2,0 989,2 87 -
15:34 12,8 10,6   Kalm 2,0 989,2 86 -
15:39 12,8 10,3   Kalm   989,2 85 0,25
15:44 12,7 10,2   Kalm   989,2 85 0,76
15:49 12,4 10,0   Kalm   989,2 86 0,76
15:54 12,5 10,7   Kalm   989,2 89 0,76
15:59 12,7 10,9   Kalm   989,2 89 0,76
16:04 12,8 11,2   Kalm   989,2 90 0,76
16:09 12,8 11,0   Kalm   989,2 89 1,78
16:14 12,7 10,8   Kalm 2,0 989,5 88 2,03
16:19 12,1 9,3   Kalm   989,5 84 2,29
16:24 11,3 8,7   Kalm   989,5 85 2,79
16:29 10,7 8,3   Kalm   989,5 86 3,05
16:34 10,3 8,3   Kalm   989,8 88 3,05
16:39 10,1 8,2   Kalm   989,8 88 3,05
16:44 9,9 8,2   Kalm   989,8 89 2,54
16:49 9,9 8,3   Kalm 5,0 989,8 90 2,29
16:54 10,0 8,6   Kalm 5,0 989,8 91 2,29
16:59 10,1 8,7   Kalm   989,8 91 2,29
17:04 10,2 8,9 2,0 WZW 3,0 989,8 91 2,29
17:09 10,2 8,8   Kalm 3,0 990,2 91 2,29
17:14 10,2 8,8   Kalm 3,0 990,2 91 1,27
17:19 10,3 8,9   Kalm 3,0 990,2 91 1,27
17:24 10,6 9,2   Kalm   990,2 91 1,02
17:29 10,7 9,3 6,0 NW 6,0 990,2 91 0,25
17:34 10,7 9,3 14,0 Westen 26,0 990,5 91 0,25
17:39 10,7 9,1 3,0 NNW 26,0 990,9 90 0,25
17:44 10,6 8,9   Kalm 3,0 990,9 89 0,25
17:49 10,6 8,9   Kalm 3,0 990,9 89 0,25
17:54 10,4 8,5   Kalm   991,2 88 0,25
17:59 10,4 8,7   Kalm   991,2 89 0,51
18:04 10,4 8,9   Kalm   991,2 89 0,51
18:09 10,4 8,8   Kalm   991,2 90 0,76
18:14 10,4 8,8   Kalm 2,0 991,5 90 0,76
18:19 10,4 8,9   Kalm   991,5 90 0,51
18:24 10,4 8,8   Kalm   991,5 90 0,51
18:29 10,4 8,8   Kalm   991,9 90 0,51
18:34 10,4 8,9   Kalm   991,9 91 0,51
18:39 10,5 9,1   Kalm   991,9 91 0,76
18:44 10,6 9,2   Kalm   991,9 91 0,76
18:49 10,6 9,4   Kalm   991,9 91 0,76
18:54 10,6 9,2   Kalm   991,9 91 0,76
18:59 10,6 9,0   Kalm   991,9 90 0,76
19:04 10,6 9,0   Kalm   992,2 90 0,51
19:09 10,5 8,9   Kalm   992,2 90 0,51
19:14 10,4 8,8   Kalm   992,2 90 0,25
19:19 10,4 8,9   Kalm 19,0 992,6 90 0,25
19:24 10,4 8,8   Kalm 23,0 992,6 90 0,25
19:29 10,2 8,3   Kalm 3,0 992,9 88 0,25
19:34 10,2 8,3   Kalm 3,0 992,9 88 0,25
19:39 10,1 8,2   Kalm 3,0 992,9 88 0,25
19:44 10,0 8,1   Kalm   992,9 88 -
19:49 10,0 8,3   Kalm   992,9 88 -
19:54 9,9 8,0   Kalm   992,9 88 -
19:59 9,9 7,8   Kalm   993,2 87 -
20:04 9,9 7,8   Kalm 2,0 993,2 87 -
20:09 9,8 7,6   Kalm 2,0 993,6 86 -
20:14 9,8 7,4   Kalm 2,0 993,6 85 -
20:19 9,7 7,3 1,0 Westen 2,0 993,6 85 -
20:24 9,7 7,3 1,0 Westen 2,0 993,6 85 -
20:29 9,6 7,4   Kalm   993,9 86 -
20:34 9,6 7,4   Kalm 2,0 994,2 86 -
20:39 9,5 7,4   Kalm 5,0 994,2 87 0,51
20:44 9,3 7,1   Kalm 5,0 994,2 87 1,02
20:49 9,2 7,2   Kalm 3,0 993,9 87 1,02
20:54 9,1 7,1   Kalm 3,0 994,2 88 1,02
20:59 8,9 7,0   Kalm 3,0 994,2 88 1,02
21:04 8,8 7,2   Kalm 3,0 994,2 89 1,02
21:09 8,8 7,1 3,0 Westen 3,0 994,2 89 1,02
21:14 8,7 7,0   Kalm 3,0 994,2 89 1,02
21:19 8,6 6,9 3,0 ZW 3,0 994,2 89 1,02
21:24 8,5 6,8   Kalm 3,0 994,2 89 1,02
21:29 8,4 6,9   Kalm 3,0 994,2 90 1,02
21:34 8,3 6,8   Kalm 3,0 994,2 90 1,02
21:39 8,3 6,8   Kalm 3,0 994,2 90 0,76
21:44 8,3 6,8   Kalm 3,0 994,6 90 0,51
21:49 8,3 6,8   Kalm 3,0 994,6 90 -
21:54 8,3 6,9   Kalm 3,0 994,6 91 -
21:59 8,3 6,9   Kalm 3,0 994,6 91 -
22:04 8,3 6,9   Kalm 3,0 994,9 91 0,25
22:09 8,4 7,0 1,0 ZO 3,0 994,9 91 0,25
22:14 8,5 7,1   Kalm 3,0 994,9 91 0,25
22:19 8,6 7,2   Kalm 2,0 995,3 91 0,25
22:24 8,6 7,2   Kalm 3,0 995,3 91 0,25
22:29 8,5 7,1   Kalm   995,3 91 0,25
22:34 8,5 7,2   Kalm 3,0 995,3 91 0,25
22:39 8,4 7,0   Kalm   995,3 91 0,25
22:44 8,4 7,0   Kalm 3,0 995,3 91 0,25
22:49 8,4 7,2   Kalm   995,3 91 0,25
22:54 8,3 6,9   Kalm 3,0 995,3 91 0,25
22:59 8,3 6,9   Kalm   995,3 91 0,25
23:04 8,2 6,8 3,0 Westen 3,0 995,3 91 0,25
23:09 8,2 6,8   Kalm   995,3 91 -
23:14 8,2 6,8   Kalm 3,0 995,3 91 -

Download your copy of this data-set  here

Our weather-data as stored at Weather Underground. Script ontwikkeld door Jim McMurry. Aangepast voor de template door Leuven-Template.eu

U vindt ons ook hier:

Het Weer Aktueel

European Weather Network

Weather Underground

Benelux Weer Netwerk

Apparatuur in gebruik:

Weerstation
Davis VP2

Weerprogramma
Meteobridge

Weercomputer
Meteobridge Pro+

Webleverancier
vip.nl

Davis VP2

Meteobridge

Meteobridge Pro+

vip.nl